RYS613 LGKO-EPKK

Flight info

Callsign RYS613
Flight time 2h 18m
Altitude 38000
Route LARKI UL609 MES UG18 GIKAS UN133 ATFIR DCT OGOTA N133 LOMOS DCT NEKUL DCT MEGIK DCT LENOV
Aircraft B38M/M-SDE1FGHILORVWXY/HB1

Departure

Time 2026-05-04 08:27
Airport Kos International Airport "Ippokratis" (LGKO)

Arrival

Time 2026-05-04 10:45
Airport Kraków John Paul II International Airport (EPKK)
Time Latitude Longitude Altitude Speed Heading
2026-05-04 08:06 36.80146 27.08928 392 ft 0 kts 58°
2026-05-04 08:08 36.80142 27.08920 421 ft 0 kts 58°
2026-05-04 08:10 36.80142 27.08919 421 ft 0 kts 58°
2026-05-04 08:20 36.80141 27.08917 421 ft 2 kts 58°
2026-05-04 08:20 36.80129 27.08893 414 ft 1 kts 58°
2026-05-04 08:21 36.80119 27.08867 419 ft 4 kts 80°
2026-05-04 08:21 36.80122 27.08839 414 ft 4 kts 133°
2026-05-04 08:21 36.80142 27.08821 414 ft 4 kts 148°
2026-05-04 08:21 36.80147 27.08817 415 ft 0 kts 148°
2026-05-04 08:24 36.80082 27.08867 418 ft 15 kts 148°
2026-05-04 08:24 36.79963 27.08961 416 ft 26 kts 150°
2026-05-04 08:24 36.79766 27.08987 415 ft 28 kts 177°
2026-05-04 08:24 36.79551 27.09039 418 ft 37 kts 147°
2026-05-04 08:25 36.79302 27.09235 409 ft 48 kts 148°
2026-05-04 08:25 36.78992 27.09476 399 ft 46 kts 148°
2026-05-04 08:25 36.78718 27.09690 396 ft 39 kts 148°
2026-05-04 08:25 36.78589 27.09821 391 ft 11 kts 139°
2026-05-04 08:26 36.78576 27.09805 391 ft 2 kts 261°
2026-05-04 08:27 36.82071 27.06391 2966 ft 168 kts 301°
2026-05-04 08:28 36.82386 27.04843 3478 ft 202 kts 278°
2026-05-04 08:28 36.82224 27.03040 4217 ft 216 kts 270°
2026-05-04 08:28 36.82445 27.01194 4729 ft 223 kts 306°
2026-05-04 08:28 36.83468 26.99764 5528 ft 224 kts 315°
2026-05-04 08:29 36.84452 26.98144 6186 ft 244 kts 308°
2026-05-04 08:29 36.85607 26.96576 6934 ft 245 kts 330°
2026-05-04 08:29 36.87099 26.95828 7811 ft 247 kts 347°
2026-05-04 08:31 37.00387 26.92689 12318 ft 313 kts 349°
2026-05-04 08:33 37.16009 26.89192 16584 ft 339 kts 349°
2026-05-04 08:33 37.18346 26.88670 17114 ft 343 kts 349°
2026-05-04 08:35 37.35297 26.84866 20298 ft 365 kts 349°
2026-05-04 08:35 37.37806 26.84291 20691 ft 368 kts 347°
2026-05-04 08:35 37.40181 26.83103 21054 ft 370 kts 327°
2026-05-04 08:35 37.42232 26.81132 21429 ft 374 kts 321°
2026-05-04 08:37 37.54449 26.68112 23594 ft 395 kts 319°
2026-05-04 08:37 37.56536 26.65852 23911 ft 397 kts 319°
2026-05-04 08:37 37.58639 26.63573 24257 ft 399 kts 320°
2026-05-04 08:38 37.60749 26.61284 24597 ft 401 kts 320°
2026-05-04 08:38 37.62870 26.58982 24939 ft 403 kts 320°
2026-05-04 08:38 37.64999 26.56669 25283 ft 405 kts 320°
2026-05-04 08:40 37.80153 26.40189 27544 ft 418 kts 321°
2026-05-04 08:40 37.82357 26.37786 27837 ft 420 kts 321°
2026-05-04 08:40 37.84575 26.35366 28133 ft 422 kts 321°
2026-05-04 08:41 37.86794 26.32939 28410 ft 423 kts 321°
2026-05-04 08:41 37.88998 26.30523 28689 ft 425 kts 321°
2026-05-04 08:41 37.91240 26.28064 28965 ft 427 kts 321°
2026-05-04 08:41 37.93489 26.25595 29222 ft 429 kts 321°
2026-05-04 08:42 37.95744 26.23117 29490 ft 430 kts 321°
2026-05-04 08:42 37.98013 26.20621 29754 ft 432 kts 321°
2026-05-04 08:42 38.00283 26.18123 29995 ft 434 kts 321°
2026-05-04 08:42 38.02570 26.15604 30230 ft 436 kts 321°
2026-05-04 08:43 38.04856 26.13084 30453 ft 436 kts 321°
2026-05-04 08:43 38.07114 26.10590 30706 ft 436 kts 321°
2026-05-04 08:43 38.09402 26.08061 30952 ft 436 kts 321°
2026-05-04 08:43 38.11691 26.05530 31194 ft 436 kts 321°
2026-05-04 08:44 38.13979 26.02997 31435 ft 436 kts 321°
2026-05-04 08:44 38.16265 26.00465 31674 ft 436 kts 320°
2026-05-04 08:46 38.32572 25.83431 33467 ft 430 kts 323°
2026-05-04 08:46 38.34940 25.81096 33716 ft 429 kts 323°
2026-05-04 08:46 38.37301 25.78775 33946 ft 429 kts 323°
2026-05-04 08:46 38.39667 25.76470 34164 ft 428 kts 323°
2026-05-04 08:47 38.42027 25.74165 34350 ft 427 kts 323°
2026-05-04 08:47 38.44381 25.71864 34505 ft 427 kts 323°
2026-05-04 08:47 38.46744 25.69555 34656 ft 427 kts 323°
2026-05-04 08:47 38.49099 25.67250 34807 ft 427 kts 323°
2026-05-04 08:48 38.51424 25.64973 34941 ft 427 kts 323°
2026-05-04 08:48 38.53782 25.62663 35088 ft 427 kts 323°
2026-05-04 08:48 38.56140 25.60350 35221 ft 427 kts 323°
2026-05-04 08:48 38.58494 25.58039 35362 ft 427 kts 323°
2026-05-04 08:49 38.60852 25.55722 35506 ft 427 kts 323°
2026-05-04 08:50 38.74941 25.41837 36142 ft 427 kts 323°
2026-05-04 08:50 38.77294 25.39512 36139 ft 427 kts 323°
2026-05-04 08:51 38.81996 25.34858 36139 ft 427 kts 323°
2026-05-04 08:51 38.86693 25.30202 36140 ft 427 kts 323°
2026-05-04 08:52 38.91358 25.25569 36143 ft 427 kts 323°
2026-05-04 08:52 38.96058 25.20893 36142 ft 427 kts 323°
2026-05-04 08:54 39.14792 25.02176 36152 ft 427 kts 323°
2026-05-04 08:55 39.19481 24.97473 36150 ft 427 kts 323°
2026-05-04 08:55 39.24169 24.92761 36148 ft 428 kts 323°
2026-05-04 09:01 39.76526 24.49999 36499 ft 427 kts 335°
2026-05-04 09:01 39.81882 24.46614 36678 ft 429 kts 335°
2026-05-04 09:02 39.87246 24.43218 36865 ft 429 kts 335°
2026-05-04 09:02 39.92618 24.39812 37031 ft 430 kts 335°
2026-05-04 09:03 39.97958 24.36419 37187 ft 430 kts 335°
2026-05-04 09:03 40.03338 24.32995 37353 ft 430 kts 335°
2026-05-04 09:04 40.08715 24.29567 37527 ft 430 kts 335°
2026-05-04 09:04 40.14088 24.26135 37676 ft 430 kts 335°
2026-05-04 09:05 40.19463 24.22696 37822 ft 430 kts 335°
2026-05-04 09:05 40.24804 24.19272 37949 ft 430 kts 335°
2026-05-04 09:06 40.30164 24.15832 38154 ft 427 kts 335°
2026-05-04 09:08 40.51548 24.02041 38162 ft 429 kts 335°
2026-05-04 09:08 40.56905 23.98572 38163 ft 429 kts 335°
2026-05-04 09:09 40.62521 23.96216 38175 ft 424 kts 350°
2026-05-04 09:09 40.68285 23.94757 38166 ft 425 kts 350°
2026-05-04 09:10 40.74114 23.93349 38163 ft 426 kts 351°
2026-05-04 09:10 40.79943 23.91958 38156 ft 426 kts 351°
2026-05-04 09:11 40.85769 23.90567 38159 ft 425 kts 351°
2026-05-04 09:11 40.91559 23.89183 38153 ft 425 kts 351°
2026-05-04 09:12 40.97378 23.87789 38152 ft 425 kts 351°
2026-05-04 09:14 41.20603 23.82201 38138 ft 424 kts 351°
2026-05-04 09:14 41.26408 23.80799 38142 ft 424 kts 351°
2026-05-04 09:15 41.32213 23.79397 38137 ft 424 kts 351°
2026-05-04 09:15 41.38012 23.77994 38139 ft 424 kts 351°
2026-05-04 09:17 41.64012 23.71728 38136 ft 423 kts 351°
2026-05-04 09:18 41.69801 23.70326 38136 ft 423 kts 351°
2026-05-04 09:18 41.75457 23.68954 38129 ft 423 kts 351°
2026-05-04 09:19 41.79636 23.67939 38137 ft 423 kts 351°
2026-05-04 09:19 41.85429 23.66529 38136 ft 423 kts 351°
2026-05-04 09:20 41.91173 23.65129 38148 ft 423 kts 351°
2026-05-04 09:20 41.96968 23.63713 38147 ft 423 kts 351°
2026-05-04 09:21 42.02749 23.62298 38154 ft 422 kts 351°
2026-05-04 09:21 42.08529 23.60881 38148 ft 423 kts 351°
2026-05-04 09:22 42.14274 23.59470 38144 ft 423 kts 351°
2026-05-04 09:22 42.20062 23.58046 38164 ft 423 kts 351°
2026-05-04 09:23 42.25846 23.56620 38155 ft 422 kts 351°
2026-05-04 09:23 42.31626 23.55192 38166 ft 423 kts 351°
2026-05-04 09:25 42.54718 23.49463 38165 ft 423 kts 351°
2026-05-04 09:26 42.60502 23.48020 38164 ft 422 kts 351°
2026-05-04 09:26 42.66242 23.46587 38155 ft 422 kts 351°
2026-05-04 09:27 42.72026 23.45140 38158 ft 422 kts 351°
2026-05-04 09:27 42.77807 23.43690 38154 ft 422 kts 351°
2026-05-04 09:28 42.83585 23.42238 38159 ft 422 kts 351°
2026-05-04 09:28 42.89371 23.40782 38156 ft 423 kts 351°
2026-05-04 09:29 42.95114 23.39335 38154 ft 423 kts 351°
2026-05-04 09:29 43.00899 23.37873 38161 ft 423 kts 351°
2026-05-04 09:30 43.06683 23.36409 38171 ft 423 kts 351°
2026-05-04 09:30 43.12469 23.34942 38154 ft 423 kts 351°
2026-05-04 09:31 43.18256 23.33473 38161 ft 423 kts 351°
2026-05-04 09:31 43.24027 23.32423 38175 ft 421 kts 356°
2026-05-04 09:32 43.29870 23.31657 38150 ft 422 kts 355°
2026-05-04 09:34 43.53264 23.28732 38156 ft 423 kts 356°
2026-05-04 09:34 43.59135 23.28007 38156 ft 424 kts 356°
2026-05-04 09:35 43.65008 23.27279 38148 ft 424 kts 356°
2026-05-04 09:35 43.70848 23.26554 38145 ft 424 kts 356°
2026-05-04 09:37 43.94037 23.20899 38140 ft 426 kts 346°
2026-05-04 09:38 43.99708 23.18722 38141 ft 425 kts 346°
2026-05-04 09:38 44.05407 23.16528 38139 ft 425 kts 346°
2026-05-04 09:39 44.11108 23.14330 38134 ft 425 kts 346°
2026-05-04 09:39 44.16803 23.12129 38138 ft 424 kts 346°
2026-05-04 09:40 44.22452 23.09942 38139 ft 425 kts 346°
2026-05-04 09:40 44.28143 23.07734 38137 ft 424 kts 346°
2026-05-04 09:42 44.50854 22.98878 38129 ft 424 kts 346°
2026-05-04 09:43 44.56537 22.96651 38126 ft 424 kts 346°
2026-05-04 09:43 44.62224 22.94418 38123 ft 424 kts 346°
2026-05-04 09:44 44.67868 22.92197 38118 ft 424 kts 346°
2026-05-04 09:46 44.90574 22.83216 38112 ft 425 kts 346°
2026-05-04 09:46 44.96269 22.80952 38115 ft 425 kts 346°
2026-05-04 09:47 45.01969 22.78681 38114 ft 426 kts 346°
2026-05-04 09:49 45.24832 22.69526 38141 ft 430 kts 346°
2026-05-04 09:51 45.45030 22.61375 38149 ft 434 kts 345°
2026-05-04 09:51 45.50849 22.59014 38144 ft 435 kts 345°
2026-05-04 09:52 45.56664 22.56591 38149 ft 435 kts 345°
2026-05-04 09:52 45.62434 22.54187 38153 ft 434 kts 345°
2026-05-04 09:53 45.68218 22.51772 38151 ft 432 kts 345°
2026-05-04 09:53 45.73980 22.49362 38152 ft 430 kts 345°
2026-05-04 09:54 45.79713 22.46958 38148 ft 429 kts 345°
2026-05-04 09:54 45.85390 22.44573 38160 ft 428 kts 345°
2026-05-04 09:55 45.91092 22.42172 38150 ft 426 kts 345°
2026-05-04 09:55 45.96780 22.39772 38149 ft 426 kts 345°
2026-05-04 09:56 46.02463 22.37370 38150 ft 425 kts 345°
2026-05-04 09:56 46.08099 22.34981 38154 ft 425 kts 345°
2026-05-04 09:57 46.13767 22.32574 38153 ft 424 kts 345°
2026-05-04 09:57 46.19426 22.30166 38157 ft 424 kts 345°
2026-05-04 09:58 46.25084 22.27753 38147 ft 424 kts 345°
2026-05-04 09:58 46.30702 22.25352 38150 ft 424 kts 345°
2026-05-04 10:00 46.52382 22.16037 38154 ft 424 kts 345°
2026-05-04 10:04 46.91894 21.98861 38188 ft 424 kts 344°
2026-05-04 10:04 46.97545 21.96383 38187 ft 424 kts 344°
2026-05-04 10:05 47.04106 21.93498 38181 ft 424 kts 344°
2026-05-04 10:05 47.08840 21.91413 38182 ft 424 kts 344°
2026-05-04 10:06 47.14452 21.88937 38179 ft 424 kts 344°
2026-05-04 10:06 47.20103 21.86447 38174 ft 424 kts 346°
2026-05-04 10:08 47.40073 21.78799 38158 ft 425 kts 346°
2026-05-04 10:08 47.45794 21.76586 38152 ft 425 kts 346°
2026-05-04 10:09 47.51519 21.74366 38160 ft 425 kts 346°
2026-05-04 10:09 47.57245 21.72142 38155 ft 426 kts 346°
2026-05-04 10:10 47.62939 21.69925 38160 ft 426 kts 346°
2026-05-04 10:10 47.68671 21.67687 38159 ft 426 kts 346°
2026-05-04 10:11 47.74401 21.65446 38157 ft 426 kts 346°
2026-05-04 10:11 47.80137 21.63197 38153 ft 426 kts 346°
2026-05-04 10:12 47.85875 21.60942 38156 ft 426 kts 346°
2026-05-04 10:12 47.91572 21.58698 38158 ft 427 kts 346°
2026-05-04 10:13 47.97316 21.56431 38159 ft 427 kts 346°
2026-05-04 10:13 48.03060 21.54158 38153 ft 427 kts 346°
2026-05-04 10:14 48.08805 21.51880 38156 ft 427 kts 346°
2026-05-04 10:16 48.28613 21.43983 36459 ft 408 kts 346°
2026-05-04 10:16 48.31346 21.42889 35966 ft 405 kts 346°
2026-05-04 10:16 48.34059 21.41801 35474 ft 403 kts 346°
2026-05-04 10:16 48.36721 21.40732 35007 ft 400 kts 346°
2026-05-04 10:17 48.39402 21.39656 34537 ft 397 kts 346°
2026-05-04 10:17 48.42063 21.38585 34067 ft 395 kts 346°
2026-05-04 10:19 48.60145 21.31281 30870 ft 375 kts 346°
2026-05-04 10:19 48.62656 21.30263 30453 ft 372 kts 346°
2026-05-04 10:19 48.65154 21.29248 30013 ft 370 kts 346°
2026-05-04 10:19 48.67632 21.28241 29548 ft 367 kts 346°
2026-05-04 10:20 48.70084 21.27243 29145 ft 363 kts 346°
2026-05-04 10:20 48.72512 21.26254 28752 ft 360 kts 346°
2026-05-04 10:20 48.74921 21.25272 28364 ft 356 kts 346°
2026-05-04 10:20 48.77303 21.24300 27982 ft 353 kts 346°
2026-05-04 10:21 48.79631 21.23349 27607 ft 350 kts 346°
2026-05-04 10:21 48.81973 21.22392 27247 ft 347 kts 346°
2026-05-04 10:21 48.84301 21.21439 26870 ft 345 kts 346°
2026-05-04 10:21 48.86612 21.20492 26503 ft 343 kts 346°
2026-05-04 10:22 48.91181 21.18618 25800 ft 338 kts 346°
2026-05-04 10:22 48.93443 21.17688 25438 ft 336 kts 346°
2026-05-04 10:22 48.95690 21.16764 25101 ft 334 kts 346°
2026-05-04 10:23 48.97896 21.15855 24758 ft 332 kts 346°
2026-05-04 10:23 49.00118 21.14940 24416 ft 330 kts 347°
2026-05-04 10:25 49.15841 21.08439 21930 ft 331 kts 346°
2026-05-04 10:25 49.18052 21.07522 21592 ft 328 kts 346°
2026-05-04 10:25 49.20239 21.06613 21265 ft 325 kts 346°
2026-05-04 10:25 49.22413 21.05712 20939 ft 322 kts 346°
2026-05-04 10:26 49.24565 21.04815 20604 ft 320 kts 346°
2026-05-04 10:26 49.26701 21.03927 20286 ft 317 kts 346°
2026-05-04 10:26 49.28818 21.03044 19964 ft 314 kts 346°
2026-05-04 10:26 49.30922 21.02166 19646 ft 312 kts 346°
2026-05-04 10:27 49.32977 21.01276 19297 ft 311 kts 341°
2026-05-04 10:27 49.34868 20.99663 18952 ft 312 kts 326°
2026-05-04 10:27 49.36655 20.97806 18657 ft 309 kts 327°
2026-05-04 10:27 49.38440 20.96007 18378 ft 305 kts 329°
2026-05-04 10:28 49.40244 20.94277 18163 ft 309 kts 329°
2026-05-04 10:28 49.42077 20.92508 17878 ft 314 kts 329°
2026-05-04 10:28 49.43931 20.90713 17570 ft 316 kts 329°
2026-05-04 10:28 49.45790 20.88910 17238 ft 316 kts 328°
2026-05-04 10:29 49.47619 20.87131 16910 ft 314 kts 329°
2026-05-04 10:29 49.49456 20.85344 16597 ft 312 kts 328°
2026-05-04 10:29 49.51284 20.83563 16275 ft 310 kts 328°
2026-05-04 10:29 49.53099 20.81796 15948 ft 308 kts 328°
2026-05-04 10:30 49.54908 20.80030 15621 ft 307 kts 328°
2026-05-04 10:30 49.56708 20.78272 15298 ft 305 kts 328°
2026-05-04 10:30 49.58496 20.76525 14980 ft 304 kts 328°
2026-05-04 10:30 49.60276 20.74783 14665 ft 302 kts 328°
2026-05-04 10:31 49.62045 20.73051 14342 ft 301 kts 328°
2026-05-04 10:31 49.63784 20.71348 14030 ft 300 kts 328°
2026-05-04 10:32 49.74198 20.61113 12091 ft 291 kts 327°
2026-05-04 10:33 49.75902 20.59434 11785 ft 290 kts 327°
2026-05-04 10:33 49.77601 20.57759 11470 ft 289 kts 328°
2026-05-04 10:33 49.79268 20.56113 11181 ft 287 kts 327°
2026-05-04 10:33 49.80407 20.54987 10980 ft 287 kts 327°
2026-05-04 10:34 49.80627 20.54769 10940 ft 287 kts 327°
2026-05-04 10:34 49.81928 20.53481 10695 ft 288 kts 327°
2026-05-04 10:35 49.83615 20.51811 10383 ft 288 kts 327°
2026-05-04 10:35 49.85289 20.50155 10190 ft 282 kts 327°
2026-05-04 10:35 49.86930 20.48530 9942 ft 280 kts 327°
2026-05-04 10:35 49.88551 20.46920 9604 ft 281 kts 327°
2026-05-04 10:36 49.90191 20.45290 9293 ft 280 kts 327°
2026-05-04 10:36 49.91826 20.43665 8979 ft 279 kts 326°
2026-05-04 10:36 49.93456 20.42044 8689 ft 277 kts 326°
2026-05-04 10:36 49.95078 20.40432 8382 ft 276 kts 326°
2026-05-04 10:37 49.96687 20.38829 8107 ft 275 kts 326°
2026-05-04 10:37 49.98295 20.37226 7805 ft 275 kts 326°
2026-05-04 10:37 49.99885 20.35641 7499 ft 276 kts 326°
2026-05-04 10:37 50.01506 20.34023 7188 ft 277 kts 326°
2026-05-04 10:39 50.11185 20.24333 5618 ft 256 kts 325°
2026-05-04 10:39 50.12476 20.22566 5399 ft 241 kts 302°
2026-05-04 10:39 50.13075 20.20273 5135 ft 228 kts 276°
2026-05-04 10:40 50.13076 20.17870 4961 ft 217 kts 262°
2026-05-04 10:40 50.12855 20.15591 4835 ft 209 kts 258°
2026-05-04 10:40 50.12593 20.13395 4708 ft 204 kts 257°
2026-05-04 10:40 50.12313 20.11265 4570 ft 199 kts 257°
2026-05-04 10:41 50.12027 20.09147 4373 ft 200 kts 257°
2026-05-04 10:41 50.11740 20.07036 4118 ft 199 kts 257°
2026-05-04 10:41 50.11444 20.04934 3901 ft 198 kts 257°
2026-05-04 10:41 50.11156 20.02857 3652 ft 200 kts 256°
2026-05-04 10:42 50.10859 20.00692 3371 ft 201 kts 256°
2026-05-04 10:42 50.10577 19.98652 3129 ft 190 kts 256°
2026-05-04 10:42 50.10302 19.96672 2904 ft 185 kts 257°
2026-05-04 10:42 50.10042 19.94759 2621 ft 175 kts 256°
2026-05-04 10:43 50.09791 19.92990 2447 ft 164 kts 257°
2026-05-04 10:44 50.08176 19.81353 1001 ft 155 kts 260°
2026-05-04 10:45 50.07944 19.79709 814 ft 149 kts 259°
2026-05-04 10:45 50.07785 19.78559 803 ft 116 kts 258°
2026-05-04 10:45 50.07664 19.77689 801 ft 53 kts 257°
2026-05-04 10:45 50.07598 19.77214 804 ft 37 kts 258°
2026-05-04 10:46 50.07549 19.76892 805 ft 26 kts 243°
2026-05-04 10:46 50.07404 19.76869 802 ft 23 kts 168°
2026-05-04 10:46 50.07358 19.76885 802 ft 0 kts 168°
2026-05-04 10:46 50.07341 19.76891 802 ft 6 kts 162°
2026-05-04 10:47 50.07312 19.76976 802 ft 14 kts 89°
2026-05-04 10:47 50.07336 19.77169 802 ft 23 kts 77°
2026-05-04 10:47 50.07373 19.77436 802 ft 27 kts 78°
2026-05-04 10:47 50.07413 19.77723 802 ft 28 kts 77°
2026-05-04 10:49 50.07675 19.79604 802 ft 25 kts 77°
2026-05-04 10:49 50.07713 19.79876 802 ft 26 kts 78°
2026-05-04 10:50 50.07752 19.80158 802 ft 28 kts 78°
2026-05-04 10:51 50.07525 19.79927 802 ft 3 kts 169°
2026-05-04 10:52 50.07495 19.79937 802 ft 6 kts 167°
2026-05-04 10:52 50.07426 19.79962 802 ft 15 kts 160°
2026-05-04 10:52 50.07415 19.80141 802 ft 23 kts 78°
2026-05-04 10:54 50.07414 19.80455 802 ft 0 kts 107°